DW9167 Weather Reports


Display with metric or nautical units.
time (UTC)temp
F
wind
direction
speed
MPH
gust
MPH
rain 1hr
in
rain 24hr
in
rain mn
in
humidity
%
barometer
mb
20260508111321 61 22 0.0 0.0 0.00 0.00 0.00 90 1008.5
20260508110323 61 67 0.0 0.0 0.00 0.00 0.00 90 1008.3
20260508105323 61 46 0.0 0.0 0.00 0.00 0.00 90 1008.3
20260508104322 61 22 0.0 2.0 0.00 0.00 0.00 89 1008.3
20260508103321 61 21 1.0 4.0 0.00 0.00 0.00 89 1008.3
20260508102322 61 35 1.0 4.0 0.00 0.00 0.00 88 1008.3
20260508101322 60 27 3.0 5.0 0.00 0.00 0.00 87 1008.3
20260508100324 60 33 1.0 3.0 0.00 0.00 0.00 86 1008.3
20260508095323 61 35 2.0 4.0 0.00 0.00 0.00 87 1008.5
20260508093324 61 22 0.0 1.0 0.00 0.00 0.00 86 1008.7
20260508092321 61 360 1.0 2.0 0.00 0.00 0.00 86 1008.3
20260508091324 61 360 1.0 3.0 0.00 0.00 0.00 85 1008.2
20260508090321 60 45 2.0 4.0 0.00 0.00 0.00 84 1008.0
20260508085323 61 45 0.0 0.0 0.00 0.00 0.00 85 1008.3
20260508083323 61 45 0.0 0.0 0.00 0.00 0.00 85 1008.3
20260508082321 61 45 0.0 2.0 0.00 0.00 0.00 84 1008.3
20260508081325 61 67 0.0 3.0 0.00 0.00 0.00 84 1008.3
20260508080422 61 67 0.0 0.0 0.00 0.00 0.00 84 1008.3
20260508074421 61 22 0.0 2.0 0.00 0.00 0.00 84 1008.3
20260508073423 61 45 0.0 1.0 0.00 0.00 0.00 84 1008.3
20260508072423 61 27 2.0 5.0 0.00 0.00 0.00 84 1008.0
20260508070422 61 45 1.0 2.0 0.00 0.00 0.00 84 1008.3
20260508065426 61 1 0.0 3.0 0.00 0.00 0.00 84 1008.7
20260508064523 61 360 0.0 1.0 0.00 0.00 0.00 85 1009.0
20260508063522 61 360 0.0 1.0 0.00 0.00 0.00 86 1009.7
20260508062525 60 22 0.0 0.0 0.00 0.00 0.00 87 1009.4
20260508061623 60 22 0.0 0.0 0.00 0.00 0.00 87 1009.7
20260508055624 61 22 1.0 2.0 0.00 0.00 0.00 85 1009.0
20260508054621 60 360 0.0 0.0 0.00 0.00 0.00 84 1009.7
20260508050623 61 22 1.0 2.0 0.00 0.00 0.00 83 1009.0
20260508044631 61 334 2.0 4.0 0.00 0.00 0.00 83 1009.0
20260508043632 61 67 0.0 0.0 0.00 0.00 0.00 83 1008.7
20260508042633 61 66 2.0 4.0 0.00 0.00 0.00 84 1009.0
20260508040731 61 22 0.0 0.0 0.00 0.00 0.00 84 1009.7
20260508035733 61 22 0.0 0.0 0.00 0.00 0.00 84 1009.7
20260508033834 61 337 0.0 0.0 0.00 0.00 0.00 84 1010.4
20260508032931 61 8 1.0 2.0 0.00 0.00 0.00 84 1010.4
20260508025933 61 45 0.0 0.0 0.00 0.00 0.00 83 1009.4
20260508024934 61 45 0.0 0.0 0.00 0.00 0.00 82 1009.7
20260508024031 61 58 0.0 4.0 0.00 0.00 0.00 82 1008.3
20260508023031 61 67 0.0 0.0 0.00 0.00 0.00 82 1008.0
20260508021032 62 67 1.0 2.0 0.00 0.00 0.00 81 1008.0
20260508020033 62 45 1.0 4.0 0.00 0.00 0.00 80 1007.6
20260508015129 62 67 0.0 0.0 0.00 0.00 0.00 79 1007.6
20260508014133 62 67 0.0 0.0 0.00 0.00 0.00 78 1007.6
20260508013132 62 45 0.0 0.0 0.00 0.00 0.00 77 1008.3
20260508012132 63 60 2.0 3.0 0.00 0.00 0.00 76 1008.3
20260508011230 63 63 2.0 6.0 0.00 0.00 0.00 75 1007.6
20260508005230 64 112 0.0 0.0 0.00 0.00 0.00 72 1008.7
20260508003232 64 67 0.0 0.0 0.00 0.00 0.00 69 1009.0
20260508002233 65 67 0.0 1.0 0.00 0.00 0.00 67 1008.3
20260508001331 66 67 0.0 2.0 0.00 0.00 0.00 67 1008.6
20260508000334 66 67 0.0 0.0 0.00 0.00 0.00 66 1009.0
20260507235331 67 45 3.0 5.0 0.00 0.00 0.00 64 1008.9
20260507233430 68 349 2.0 6.0 0.00 0.00 0.00 66 1009.0
20260507232431 67 43 3.0 4.0 0.00 0.00 0.00 66 1009.0
20260507231431 66 22 2.0 4.0 0.00 0.00 0.00 66 1008.7
20260507230430 67 51 3.0 5.0 0.00 0.00 0.00 65 1008.7
20260507224431 67 27 1.0 4.0 0.00 0.00 0.00 68 1009.0
20260507223430 66 40 2.0 4.0 0.00 0.00 0.00 67 1009.4
20260507222430 66 56 4.0 5.0 0.00 0.00 0.00 68 1009.7
20260507214431 66 35 2.0 4.0 0.00 0.00 0.00 67 1009.4
20260507213530 67 45 1.0 3.0 0.00 0.00 0.00 67 1009.4
20260507212532 67 27 2.0 3.0 0.00 0.00 0.00 66 1009.0
20260507211630 67 45 2.0 5.0 0.00 0.00 0.00 69 1009.0
20260507205730 65 67 1.0 3.0 0.00 0.00 0.00 71 1009.4
20260507203832 65 42 3.0 5.0 0.00 0.00 0.00 70 1010.4
20260507202832 65 25 4.0 5.0 0.00 0.00 0.00 70 1010.7
20260507200931 66 28 4.0 8.0 0.00 0.00 0.00 69 1010.1
20260507195931 66 53 4.0 6.0 0.00 0.00 0.00 71 1010.7
20260507194932 64 40 2.0 5.0 0.00 0.00 0.00 73 1010.7
20260507192931 64 66 1.0 5.0 0.00 0.00 0.00 77 1010.7
20260507192030 63 53 1.0 3.0 0.00 0.00 0.00 78 1011.4
20260507191032 63 22 0.0 1.0 0.00 0.00 0.00 79 1011.1
20260507190034 63 5 1.0 5.0 0.00 0.00 0.00 77 1011.1
20260507185031 63 40 4.0 8.0 0.00 0.00 0.00 75 1011.1
20260507184032 63 50 4.0 7.0 0.00 0.00 0.00 77 1011.4
20260507183130 63 82 1.0 4.0 0.00 0.00 0.00 77 1011.4
20260507182130 63 40 4.0 7.0 0.00 0.00 0.00 77 1011.4
20260507181132 63 37 1.0 4.0 0.00 0.00 0.00 79 1011.4
20260507180230 62 67 3.0 7.0 0.00 0.00 0.00 80 1011.1
20260507175231 62 45 0.0 8.0 0.00 0.00 0.00 83 1011.4
20260507174232 61 67 2.0 5.0 0.00 0.00 0.00 83 1011.7
20260507173231 61 30 0.0 1.0 0.00 0.00 0.00 85 1011.7
20260507171232 59 90 1.0 3.0 0.00 0.00 0.00 87 1012.4
20260507170230 60 64 2.0 4.0 0.00 0.00 0.00 86 1012.4
20260507164330 59 36 3.0 6.0 0.00 0.00 0.00 89 1012.4
20260507163330 58 36 2.0 5.0 0.00 0.02 0.00 90 1012.7
20260507161430 58 8 4.0 8.0 0.00 0.03 0.00 90 1013.9
20260507160431 58 49 5.0 8.0 0.00 0.03 0.00 91 1013.2
20260507155431 59 46 4.0 6.0 0.00 0.03 0.00 92 1013.2
20260507154431 59 64 3.0 6.0 0.00 0.03 0.00 93 1013.2
20260507153529 59 45 2.0 4.0 0.00 0.03 0.00 95 1013.2
20260507151532 58 50 4.0 8.0 0.00 0.03 0.00 94 1013.5
20260507150531 58 26 4.0 8.0 0.00 0.03 0.00 96 1013.2
20260507145530 58 12 3.0 5.0 0.00 0.03 0.00 96 1012.8
20260507144534 57 10 5.0 13.0 0.00 0.03 0.00 96 1013.2
20260507143532 58 45 3.0 6.0 0.00 0.03 0.00 97 1013.2
20260507142533 58 39 3.0 8.0 0.00 0.03 0.00 96 1013.2
20260507141532 58 24 5.0 10.0 0.00 0.03 0.00 97 1012.4
20260507140531 58 26 1.0 4.0 0.00 0.03 0.00 98 1012.4
20260507135531 58 1 3.0 6.0 0.00 0.03 0.00 98 1012.8
20260507134534 58 355 3.0 7.0 0.00 0.03 0.00 98 1012.1
20260507133531 58 46 4.0 9.0 0.00 0.03 0.00 98 1012.1
20260507132531 58 12 4.0 7.0 0.00 0.03 0.00 98 1012.1
20260507131630 58 48 3.0 6.0 0.00 0.03 0.00 98 1012.1
20260507130631 58 12 2.0 5.0 0.00 0.03 0.00 98 1012.4
20260507125730 58 9 5.0 11.0 0.00 0.03 0.00 98 1012.4
20260507124731 58 16 3.0 6.0 0.00 0.03 0.00 98 1012.4
20260507123731 58 5 5.0 10.0 0.00 0.03 0.00 98 1011.7
20260507122730 58 12 5.0 11.0 0.00 0.03 0.00 98 1012.1
20260507121829 58 15 4.0 10.0 0.00 0.03 0.00 98 1011.7
20260507120832 57 31 4.0 6.0 0.00 0.03 0.00 98 1011.1
20260507115831 57 33 3.0 7.0 0.00 0.03 0.00 98 1011.1
20260507114830 57 1 2.0 6.0 0.00 0.03 0.00 98 1011.7
20260507113829 57 18 1.0 8.0 0.00 0.03 0.00 98 1011.4
20260507112831 57 9 4.0 7.0 0.00 0.03 0.00 98 1011.1
20260507111835 57 34 4.0 8.0 0.00 0.03 0.00 98 1011.1